Location: Atherton
(17.2661°S, 145.4859°E)
Time: 00:38:32
(UTC+10:00)

Vanguard 1 - Pass Details

Date: 29 June 2025
Orbit: 649 x 3822 km, 34.2° (Epoch: 17 July)

Event Time Altitude Azimuth Distance (km) Brightness Sun altitude
Rises 19:54:04 0° 269° (W) 7,498 15.7 -27.5°
Reaches altitude 10° 20:00:24 10° 262° (W) 6,066 14.8 -28.9°
Maximum altitude 20:15:41 37° 199° (SSW) 2,959 12.4 -32.4°
Enters shadow 20:18:54 33° 169° (S) 2,840 12.1 -33.1°
Drops below altitude 10° 20:24:36 10° 133° (SE) 3,574 - -34.4°
Sets 20:27:16 0° 124° (ESE) 4,224 - -35.1°
